Location: Drocourt
(49.0571°N, 1.7669°E)
Time: 21:25:09
(UTC+00:00)

S-56A Canister/Altair - Pass Details

Date: 15 April 2024
Orbit: 638 x 2488 km, 38.9° (Epoch: 20 May)

Event Time Altitude Azimuth Distance (km) Brightness Sun altitude
Rises 00:17:02 0° 274° (W) 4,947 11.6 -30.8°
Reaches altitude 10° 00:20:43 10° 263° (W) 4,226 11.1 -30.8°
Enters shadow 00:23:51 18° 249° (WSW) 3,791 10.7 -30.7°
Maximum altitude 00:29:42 26° 213° (SSW) 3,603 - -30.5°
Drops below altitude 10° 00:40:28 10° 165° (SSE) 5,095 - -30.1°
Sets 00:45:33 0° 155° (SSE) 6,151 - -29.9°
